Search flights

Carrasco Intl/Gen C L Berisso Airport, Montevideo (SUMU)

Airport Weather & NOTAM's

METAR for:SUMU (Carrasco Intl, CA, UY)
Text:SUMU 230200Z 32008KT 8000 OVC008 13/13 Q1021 TEMPO BR
Conditions at:0200 UTC 23 Jul 2024
Temperature: 13.0°C ( 55°F)
Dewpoint: 13.0°C ( 55°F) [RH = 100%]
Pressure (altimeter):30.15 inches Hg (1021.0 mb)
Winds:from the NW (320 degrees) at 9 MPH (8 knots; 4.1 m/s)
Visibility:5 sm (8 km)
Ceiling:800 feet AGL
Clouds:overcast cloud deck at 800 feet AGL
TAF for:SUMU (Carrasco Intl, CA, UY) issued at 2330 UTC 22 Jul 2024
Text:TAF SUMU 222330Z 2300/2324 32005KT 9999 BKN013 TX20/2318Z TN12/2311Z
Forecast period:0000 UTC 23 July 2024 to 0000 UTC 24 July 2024
Forecast type:FROM: standard forecast or significant change
Winds:from the NW (320 degrees) at 6 MPH (5 knots; 2.6 m/s)
Visibility:6 or more sm (10+ km)
Ceiling:1300 feet AGL
Clouds:broken clouds at 1300 feet AGL
Temperature:MAX 20°C at 1800 UTC 23 Jul 2024
Temperature:MIN 12°C at 1100 UTC 23 Jul 2024
Text:TEMPO 2300/2312 2000 BR OVC008
Forecast period:0000 to 1200 UTC 23 July 2024
Forecast type:TEMPORARY: The following changes expected for less than half the time period
Visibility:1.24 sm (2.00 km)
Ceiling:800 feet AGL
Clouds:overcast cloud deck at 800 feet AGL
Weather:BR (mist)
Text:TEMPO 2303/2311 0800 FG OVC003
Forecast period:0300 to 1100 UTC 23 July 2024
Forecast type:TEMPORARY: The following changes expected for less than half the time period
Visibility:0.50 sm (0.80 km)
Ceiling:300 feet AGL
Clouds:overcast cloud deck at 300 feet AGL
Weather:FG (fog)

Live Departures & Arrivals

There are currently no arrivals or departures for this airport.

Departures History (last 12 months)

Flight No. Dest. Aircraft Date
BR01 SBPK Boeing 737... 2024-07-23 00:02:40
PUA1502 SABE FenixA320... 2024-07-21 16:40:17
{}PUA2018 SABE B737-800X... 2024-07-19 20:38:21
PUA1502 SABE A320 CFM P... 2024-07-19 15:59:43
PUAUR01 SUSO Tecnam P20... 2024-07-18 14:18:47
PUA2011 SCEL PMDG 777-3... 2024-07-18 21:56:15
{}PUA2018 SAEZ ToLissA319... 2024-07-17 18:24:22
PUA2403 SABE PMDG 737-8... 2024-07-16 23:38:09
PUA1502 SCEL A320 IAE P... 2024-07-16 18:03:39
PUA2109 SGAS B737-800X... 2024-07-15 22:34:24
PUA2018 SUAA Sikorsky S... 2024-07-12 22:59:04
PUA2411 SABE A320 IAE P... 2024-07-11 20:51:22
ARG01 SANT PMDG 737-7... 2024-07-10 20:55:03
PUAARG01 SANT B738 2024-07-10 12:00:00
PUAARG01 SANT PMDG 777-3... 2024-07-09 20:50:05
PUA269 SANT PMDG 737-8... 2024-07-09 21:05:30
PUA1502 SAZM A320 CFM P... 2024-07-09 15:31:30
ARG01 SANT A320 IAE P... 2024-07-09 19:50:09
ARG01 SANT Learjet 60... 2024-07-09 16:58:05
PUA2401 NTAA PMDG 777-3... 2024-07-08 02:28:02
PUA2018 SPJC ToLissA319... 2024-07-08 13:51:32
PUA2403 SULS AT46 Pluna... 2024-07-07 20:34:23
PUA2104 SBKP Rotate-MD-... 2024-07-06 14:41:29
PUA1167 SAEZ PMDG 777-3... 2024-07-06 15:59:13
PUA2018 SCEL JD330XP120... 2024-07-04 19:57:51
PUA2109 SABE B737-800X... 2024-07-01 18:24:14
{}PUA2018 LEMD JD330XP120... 2024-06-29 03:20:16
{}PUA2018 SCEL JD330XP120... 2024-06-29 23:19:04
PUA269 SAEZ A320 CFM P... 2024-06-28 14:32:45
PUA2104 SAZB Tu-134A-3... 2024-06-28 02:10:06
PUA2401 SAAR PMDG 777-3... 2024-06-27 02:15:00
PUA2018 SUAA Sikorsky S... 2024-06-26 14:27:19
PUA1502 SBPA A320 IAE P... 2024-06-26 21:29:30
PUA1502 SABE A320 CFM P... 2024-06-25 16:10:05
PUA1502 SABE A320 CFM P... 2024-06-23 02:09:13
PUA2104 SURV Rotate-MD-... 2024-06-22 15:05:47
PUA207 SBGL PMDG 737-8... 2024-06-22 14:41:35
PUA1502 SABE A320 CFM P... 2024-06-22 21:03:01
PUA1502 SABE A320 CFM P... 2024-06-21 15:37:30
PUA1502 SABE A320 CFM P... 2024-06-21 23:13:50
PUA1496 SABE LSH MD-82... 2024-06-21 11:10:12
PUA2104 SAAR MD-80SF (C... 2024-06-20 20:19:42
BR01 SBPK LSH MD-82... 2024-06-20 19:07:53
PUA2046 KMIA Airbus A33... 2024-06-19 15:46:47
PUA2011 KMIA Boeing 787... 2024-06-19 15:47:08
PUA1496 SABE LSH MD-82... 2024-06-19 18:10:29
PUA2409 SBKP A320neo Ea... 2024-06-18 02:19:24
PUA2104 SABE Tu-134B-3_... 2024-06-17 00:19:01
PUA113 SAME LSH MD-82... 2024-06-17 20:24:43
PUA1502 SLVR A320 CFM P... 2024-06-16 15:43:07
PUA2401 LEMD B788 Pluna... 2024-06-15 04:18:09
PUA2018 SULS Sikorsky S... 2024-06-15 23:23:30
PUA2018 SCEL ToLissA319... 2024-06-15 14:03:09
PUA2011 SCEL PLUNA 2024-06-15 15:45:08
PUA201 SBPA A320 CFM P... 2024-06-15 14:39:18
AR34 SAZR LSH MD-82... 2024-06-15 18:51:35
{}PUA2018 SLLP B737-800X... 2024-06-14 17:17:44
PUA1502 SULS Bonanza G3... 2024-06-14 22:56:28
PUA-T01 SULS A320 IAE P... 2024-06-14 01:58:58
AR12 SAAR LSH MD-82... 2024-06-14 12:57:53
AR01 SADF LSH MD-82... 2024-06-12 00:55:29
3W01 SBBR ToLissA319... 2024-06-11 16:01:25
{}PUA2018 SBRJ ToLissA319... 2024-06-07 15:50:57
{}PUA2018 SCEL ToLissA319... 2024-06-07 22:17:18
PUA1496 SABE LSH MD-82... 2024-06-07 09:20:00
PUA119 SAWH A320 CFM P... 2024-06-07 13:34:23
AR23 SAZM LSH MD-82... 2024-06-07 13:48:13
PUA301 SCEL A320 CFM P... 2024-06-06 15:26:30
AR34 SAZR Bombardier... 2024-06-06 14:31:41
UR01 SUSO LSH MD-82... 2024-06-05 18:08:55
PUA201 SBPA A320neo Ai... 2024-06-05 13:26:41
PUA401 SGAS A320neo Ai... 2024-06-04 19:25:12
PUA101 SABE Airbus A32... 2024-06-03 23:28:07
PUA2109 SVMI Boeing 787... 2024-06-02 16:28:59
PUA211 SBFL Airbus A32... 2024-06-01 15:46:38
PUA2018 SABE ToLissA319... 2024-06-01 16:04:13
PUA2046 SGAS PMDG 737-6... 2024-05-30 19:01:10
PUA2018 SCEL A330 2 Swi... 2024-05-29 16:43:28
{}N806SB SABE B737-800X... 2024-05-27 20:14:23
PUA101 SABE Cessna Sky... 2024-05-27 04:06:19
PUA2018 SABE B737-800X... 2024-05-25 12:28:51
PUA115 SAZM A320neo Wi... 2024-05-25 19:56:16
PUA103 SAEZ Airbus A32... 2024-05-25 12:35:24
PUA2011 SAZS FenixA320_... 2024-05-24 21:17:39
PUA211 SBFL A320 CFM P... 2024-05-23 18:41:29
AR34 SAZR Bonanza G3... 2024-05-23 13:43:07
PUA119 SAWH A320 IAE P... 2024-05-21 14:36:31
PUA2109 SLVR B737-800X... 2024-05-20 17:38:41
PUA103 SAEZ FenixA320... 2024-05-20 22:11:22
PUA2109 SGAS B737-800X... 2024-05-19 17:54:19
PUA2104 SABE Tu-134A-3... 2024-05-19 01:52:01
PUA2401 SABE A320 CFM P... 2024-05-18 00:25:42
PUA2104 SABE Tu-134A-3... 2024-05-17 15:47:47
PUA2401 SAZM A320 Pluna... 2024-05-16 01:02:45
PUA2401 SUMO AT46 Pluna... 2024-05-15 15:39:51
{}PUA2018 SABE ToLissA319... 2024-05-13 21:12:40
PUA2401 SBCX B788 Pluna... 2024-05-12 19:57:01
AR12 SAAR Beech King... 2024-05-12 23:25:53
PUA2401 SAEZ Boeing 787... 2024-05-11 23:39:58
AR23 SAZM Bonanza G3... 2024-05-11 13:36:33
UR07 SUMO Bombardier... 2024-05-09 02:09:50
PUA2106 SABE Fenix A320... 2024-05-09 00:39:53
PUA2018 SABE B737-800X... 2024-05-08 21:02:24
PUA2046 SVMI Airbus A32... 2024-05-07 11:43:51
AR12 SAAR Bonanza G3... 2024-05-06 21:42:54
PUA1497 SBPA Carenado P... 2024-05-05 12:52:39
PUA253 SBSM Airbus A32... 2024-05-04 21:16:09
PUA2302 SABE PMDG 737-6... 2024-05-02 23:23:03
AR01 SADF Bonanza G3... 2024-05-02 00:20:57
UR07 SUMO Cessna Sky... 2024-04-30 14:02:39
PUA2401 SAEZ Airbus A33... 2024-04-30 23:34:44
PUA2104 SAEZ MD-80SF (C... 2024-04-29 21:09:44
PUA1502 SUCA Cessna Sky... 2024-04-28 14:44:10
PUA2401 SABE AT46 Pluna... 2024-04-26 00:18:13
LAN216 SABE FenixA320... 2024-04-26 00:18:05
PUA2018 SBRJ ToLissA319... 2024-04-24 18:08:43
PUA1502 SULS Cessna Sky... 2024-04-24 23:12:01
PUA2046 SBCF Airbus A32... 2024-04-23 16:54:21
PUA1497 SABE TBM 930 As... 2024-04-22 11:14:58
PUA1167 SULS Bonanza G3... 2024-04-21 22:14:03
AR01 SADF PMDG 737-7... 2024-04-18 21:22:44
PUA1502 SAWH FlightFact... 2024-04-16 21:06:15
{}PUA1502 SAZR FlightFact... 2024-04-15 15:47:38
PUA2046 SGAS ALITALIA A... 2024-04-15 16:32:01
PUA2018 SGAS ToLissA319... 2024-04-15 17:04:31
UR07 SUMO Cessna 172... 2024-04-13 15:13:31
UR04 SUPU Beech King... 2024-04-12 18:21:16
PUA103 SAEZ FlightFact... 2024-04-11 22:27:22
UR04 SUPU Cessna 172... 2024-04-08 14:53:17
PUA1498 SABE FenixA320... 2024-04-08 12:35:18
PUA2104 SABE 320_JARDes... 2024-04-07 00:53:22
{}PUA-T01 SULS Cessna 172... 2024-04-03 15:49:48
UR01 SUSO Cessna 172... 2024-04-03 20:45:17
PUA2104 SABE ToLissA319... 2024-04-03 13:33:52
CL24-G11 SAAR Black Squa... 2024-04-03 15:02:20
CL24-G09 SBCF Mitsubishi... 2024-04-02 12:06:02
PUA2318 SABE PMDG 737-7... 2024-03-31 21:12:51
CL24-G04 SVMI DCDesigns_... 2024-03-28 14:45:33
PUA2011 SCEL FenixA320_... 2024-03-20 19:00:29
JAT761 SCEL FenixA320_... 2024-03-20 19:16:35
PUAGC09 SANT Black Squa... 2024-03-15 15:15:59
TAM2046 SARI ALITALIA A... 2024-03-13 16:56:08
LAN2011 SARI Airbus A31... 2024-03-13 17:06:02
PUAG0306 SGAS PC-12 N465... 2024-03-10 17:01:25
PUA2046 SABE FenixA320... 2024-03-10 20:22:45
UR01 SUSO Beech King... 2024-03-09 21:49:10
PUA1497 SAME Black Squa... 2024-03-08 13:23:34
PUA2046 SLVR FenixA320... 2024-03-06 16:36:54
PUA2046 SCEL FenixA320_... 2024-03-01 15:09:17
3W01 SBBR Fenix A320... 2024-02-29 19:30:13
PUA-T01 SULS FenixA320_... 2024-02-26 09:44:02
EV1-01 SBFL PMDG 737-8... 2024-02-25 18:20:26
EV1-01 SBFL FSW LEARJE... 2024-02-25 17:15:13
PUA1495 SBCT Airbus A32... 2024-02-16 11:32:04
PUA 2104 SBPA Tu-134B-3_... 2024-02-16 21:19:26
PUA1498 SACO PMDG 737-7... 2024-02-12 12:21:35
PUA142 SABE 737NG Seri... 2024-02-09 21:47:25
PUA2104 SADP Tu-134B-3_... 2024-02-08 23:37:57
PUA269 SAEZ PMDG 737-8... 2024-02-07 15:40:52
PUA2109 SAEZ B737-800X... 2024-02-05 14:53:08
PUA2104 SADM Tu-134B-3_... 2024-02-04 20:39:37
PUA257 SARI PMDG 737-8... 2024-01-28 20:58:22
PUA2317 SABE PMDG 737-9... 2024-01-22 22:03:24
PUA2317 SABE PMDG 737-9... 2024-01-17 14:43:58
PUA2046 SASJ PMDG 737-8... 2024-01-15 21:09:37
AR01 SADF Beech Baro... 2024-01-12 16:34:52
PUAG0105 SBDO Cessna CJ4... 2024-01-09 12:05:45
PUA1498 SARE FenixA320_... 2024-01-09 12:30:13
PUA142 SARE B737-800X_... 2024-01-09 12:05:49
PUA999 SBFL PMDG 737-6... 2024-01-08 19:38:00
PUA-G0104 SBCT Cessna CJ4... 2024-01-07 19:10:50
PUA2318 SAZM PMDG 737-7... 2024-01-06 19:20:55
PUA2104 SABE Cessna Cit... 2024-01-04 00:15:25
PUA2327 SABE Airbus A32... 2024-01-03 23:27:06
PUA2104 SCEL B737-800X... 2024-01-03 01:52:46
3W01 SBBR Boeing 737... 2024-01-02 19:02:44
PUA2327 SABE Airbus A32... 2024-01-01 21:33:25
PUA2004 SUAA Cessna 152... 2023-12-30 22:29:50
PUA1495 SBCT Airbus A32... 2023-12-29 18:05:54
PUA1497 SAAV Black Squa... 2023-12-25 15:08:18
PUA2104 SABE Carenado B... 2023-12-24 14:17:31
PUA1495 SAZM Airbus A32... 2023-12-23 02:44:48
PUA-1497 SBPA Cessna T20... 2023-12-20 10:08:44
AR23 SAZM Beech Baro... 2023-12-20 21:52:43
PUA1495 SABE Airbus A32... 2023-12-19 02:13:46
SG01 SGEN Beech King... 2023-12-18 13:36:03
PUA666 SBSP PMDG 737-6... 2023-12-17 20:56:01
PUA-GL1204 SGAS Mitsubishi... 2023-12-15 10:02:10
PUA2011 SBSP FenixA320_... 2023-12-13 17:12:23
PUAGL1203 SGAS Black Squa... 2023-12-10 19:41:17
AR12 SAAR Beech King... 2023-12-06 15:43:06
PUA666 SARC PMDG 737-6... 2023-12-03 20:26:22
PUA2046 SARC B737-800X_... 2023-12-03 20:23:30
PUA142 SACO B737-800X_... 2023-12-01 19:18:36
PUA142 SABE B737-800X_... 2023-12-01 17:15:33
PUA2302 SABE FenixA320_... 2023-11-26 20:09:38
PUA2046 SABE Airbus A31... 2023-11-26 19:10:05
PUA1167 SULS Bonanza G3... 2023-11-26 13:30:41
AR34 SAZR Beech King... 2023-11-23 14:30:46
PUA2324 SABE PMDG 737-7... 2023-11-21 22:23:14
PUA948 SAZM PMDG 737-6... 2023-11-19 19:06:05
PUA253 SBPA Airbus A33... 2023-11-17 20:22:29
PUA253 SBPA B789 Air C... 2023-11-15 20:30:44
PUA1498 SARI FenixA320_... 2023-11-14 20:46:59
PUA2318 SAZM HJET HA420... 2023-11-12 23:00:50
PUA269 SBFL PMDG 737-8... 2023-11-11 12:38:57
PUA142 SBFL B737-800X_... 2023-11-11 12:39:19
PUA269 SPJC PMDG 737-8... 2023-11-09 23:13:12
PUA2046 SBBR PMDG 737-8... 2023-11-07 15:44:48
PUA2011 SBBR PMDG 737-8... 2023-11-07 15:44:45
PUA257 SBBR PMDG 737-8... 2023-11-06 22:09:12
PUA1167 SABE PMDG 737-8... 2023-11-03 23:02:12
N851TB SBFI Black Squa... 2023-11-03 13:30:43
CHARTER1 SAZS Boeing 737... 2023-10-31 13:46:16
PUA2046 SCEL PMDG 737-6... 2023-10-30 17:21:05
PUA2011 SCEL PMDG 737-7... 2023-10-30 17:18:35
PUA142 SAZM PMDG 737-7... 2023-10-30 12:40:44
AR01 SADF Beech Baro... 2023-10-25 19:21:51
AR23 SAZM PMDG 737-7... 2023-10-24 01:46:56
UR07 SUMO Beech Baro... 2023-10-23 14:28:24
MAD1 SBRF Airbus A33... 2023-10-23 10:43:10
PUA687 SABE PMDG 737-7... 2023-10-22 22:03:43
PUA687 SABE PMDG 737-7... 2023-10-22 19:41:57
PUA2302 SAEZ FenixA320_... 2023-10-22 21:47:59
PUA2109 SGAS Boeing767-... 2023-10-22 15:47:50
MAD1 SBRF B738X_3_54... 2023-10-20 20:26:29
3W01 SBBR Boeing 737... 2023-10-19 16:32:13
PUA2302 SBGL FenixA320_... 2023-10-17 09:21:06
PUA2046 SBPA PMDG 737-6... 2023-10-17 15:31:21
PUA2011 SBPA Airbus A31... 2023-10-17 15:07:51
UR04 SUPU Beech Baro... 2023-10-16 02:33:44
UR01 SUSO Beech Baro... 2023-10-15 20:15:19
PU1528 SABE PMDG 737-8... 2023-10-13 19:15:08
PUA253 SBFL Interconti... 2023-10-11 20:57:43
PUA2046 SKBO Boeing 747... 2023-10-11 16:28:02
PUA142 SBFL PMDG 737-7... 2023-10-11 20:04:45
PUA2302 SKBU PMDG 737-9... 2023-10-08 02:25:01
PUA2317 SCEL PMDG 737-9... 2023-10-07 21:42:27
LAN331 SAZM Airbus A32... 2023-10-06 19:26:21
PUA2302 SCTE FenixA320_... 2023-10-04 17:05:02
PUA2046 SBGR FenixA320_... 2023-10-03 18:36:48
PUA2317 SCEL PMDG 737-9... 2023-10-02 23:16:40
AR34 SAZR Flysimware... 2023-10-02 13:45:02
PUA2318 SBPA PMDG 737-6... 2023-10-01 19:47:03
PUA283 SBFI PMDG 737-6... 2023-09-28 16:29:30
AR23 SAZM Carenado P... 2023-09-22 11:33:21
PUA1250 SABE FenixA320_... 2023-09-18 00:54:04
PUA2104 SAZM ToLissA319... 2023-09-17 01:05:42
PUA2046 SCQP B737-800X_... 2023-09-15 16:57:21
PUA002 SAEZ PMDG 737-7... 2023-09-13 22:33:18
PUA2317 SCEL PMDG 737-9... 2023-09-12 22:45:54
PUA2046 SEQM FenixA320_... 2023-09-12 12:36:08
AR12 SAAR ATR 42-600... 2023-09-07 14:21:07
PUA687 SABE PMDG 737-7... 2023-09-03 02:37:02
PUA2317 SABE Airbus A32... 2023-09-03 01:54:50
PUA2317 SULS Beech Baro... 2023-09-02 22:05:20
AR01 SADF Just Fligh... 2023-08-31 09:10:01
UR07 SUMO Beech King... 2023-08-22 09:39:17
PUA-T01 SULS Cessna Sky... 2023-08-22 01:24:59
PUA2104 SABE Cessna Cit... 2023-08-18 00:18:11
PUA2018 SCEL Airbus A33... 2023-08-18 17:44:36
PUA142 SABE B738X_XP12... 2023-08-17 15:08:52
UR04 SUPU Beech Baro... 2023-08-13 22:04:16
AR34 SAZR PMDG 737-7... 2023-08-13 13:25:26
UR07 SUMO S340_v1.2... 2023-08-12 01:01:50
PUA687 SABE PMDG 737-7... 2023-08-07 02:10:57
3W01 SBBR TBM 930 As... 2023-08-07 12:18:25
UR04 SUPU S340_v1.2... 2023-08-06 01:55:16
3W01 SBBR FenixA320_... 2023-08-05 17:56:26
UR01 SUSO Beech Baro... 2023-08-04 02:31:18
{PUA269 SACO PMDG 737-7... 2023-08-03 21:45:52
PUA142 SACO PMDG 737-7... 2023-08-03 21:45:50
AR23 SAZM PMDG 737-7... 2023-08-03 23:47:52
3W01 SBBR Airbus A33... 2023-08-02 16:07:34
{}CX-BOO SBBR PMDG 737-7... 2023-08-01 19:43:26
PUA3W01 SBBR PMDG 737-7... 2023-08-01 19:45:07
PUA3W01 SBBR PMDG 737-7... 2023-08-01 19:23:57
PUA3W01 SBBR FenixA320_... 2023-08-01 18:28:34
PUA269 LIRF Boeing 747... 2023-08-01 23:15:31
UR01 SUSO S340_v1.2... 2023-07-31 00:12:46
PUA319 SBGL Air Canada... 2023-07-31 16:46:05
PUA2011 SBGL Boeing 747... 2023-07-31 16:46:23
PUA2018 SUAA Sikorsky S... 2023-07-30 12:57:37
PUA2018 SUDU Sikorsky S... 2023-07-29 13:34:45
PUA2302 SBGR 737 700 2023-07-30 18:00:00
UR04 SUPU Carenado P... 2023-07-27 13:21:20
PUA2046 SCEL PMDG 737-8... 2023-07-25 17:01:59
PUA2011 SCEL Boeing 787... 2023-07-25 16:43:36
AR12 SAAR PMDG 737-8... 2023-07-25 21:54:45
UR07 SUMO Baron B58 2023-07-24 22:53:10
PUA687 SABE Boeing 737... 2023-07-24 22:21:09
PUA687 SABE PMDG 737-7... 2023-07-24 04:36:45
PUA2109 SUSO Carenado P... 2023-07-24 15:36:04

Arrivals History (last 12 months)

Flight No. Origin Aircraft Date
PUA2109 MPTO BOEING 788 2024-07-21 21:30:00
PUA2011 SCEL PMDG 777-3... 2024-07-21 22:19:21
PUA2411 SAZS A320 IAE P... 2024-07-20 23:34:10
PUA2109 SASJ B737-800X... 2024-07-20 22:50:07
CXFLU SULS Cessna Sky... 2024-07-20 23:19:59
PUA253 SCEL PMDG 777-3... 2024-07-19 22:46:19
PUA2411 SURV A320 IAE P... 2024-07-19 01:15:27
PUA2109 SGAS B737-800X... 2024-07-19 21:48:22
{}PUA2018 SBGR JD330XP120... 2024-07-18 18:20:28
PUAJCU3 SURV AT46 Pluna... 2024-07-18 22:36:35
PUA257 SBGR PMDG 777-3... 2024-07-18 21:15:17
JCU3 SURV Asobo Baro... 2024-07-18 23:04:08
JCU3 SURV Hunting Pe... 2024-07-18 22:19:15
PUA1502 SCEL A320 IAE P... 2024-07-17 17:30:15
AR11 SAAP Boeing 737... 2024-07-17 00:25:01
{}PUA2018 SAEZ ToLissA319... 2024-07-15 22:09:45
PUA2302 SCEL PMDG 777-3... 2024-07-15 01:38:40
PUA1498 SCEL PMDG 737-8... 2024-07-15 02:48:09
CXFLU SULS Cessna Sky... 2024-07-15 16:42:24
{}PUA2018 SBRJ B737-800X... 2024-07-14 17:58:06
PUA2401 SABE PMDG 737-8... 2024-07-13 22:33:08
PUA2109 SCEL B737-800X... 2024-07-13 23:12:59
PUA2401 SURV AT46 Pluna... 2024-07-09 21:04:46
{}PUA2018 SABE B737-800X... 2024-07-08 00:12:40
PUA1502 SABE A320 IAE P... 2024-07-08 19:02:34
{}PUA2018 LEMD JD330XP120... 2024-07-05 14:03:25
PUA2109 SABE B737-800X... 2024-07-05 21:08:56
PUA253 SBPA PMDG 777-3... 2024-07-01 22:41:28
PUA2109 SBRF B737-800X... 2024-06-30 22:02:11
{}PUA2018 SABE B737-800X... 2024-06-29 19:27:02
PUA2401 SAEZ PMDG 777-3... 2024-06-29 18:14:48
PUA208 SBGL PMDG 777-3... 2024-06-29 19:22:08
PUA2401 SAZM PMDG 777-3... 2024-06-27 20:06:45
AR44 SAEZ Boeing 737... 2024-06-27 02:28:51
PUA1502 SCEL A320 IAE P... 2024-06-26 20:40:44
PUA2109 SLVR Boeing767-... 2024-06-25 22:59:41
PUA1502 SABE A320 CFM P... 2024-06-24 21:15:27
PUA2109 SAWH B737-800X... 2024-06-22 21:31:19
PUA2104 SURV Rotate-MD-... 2024-06-22 22:20:37
PUA1502 SULS Bonanza G3... 2024-06-22 20:21:00
PUA1502 SABE A320 CFM P... 2024-06-22 18:21:21
PUA2018 MPTO A330 2 PUA 2024-06-21 00:15:27
PUA1502 SABE A320 CFM P... 2024-06-21 15:02:18
PUA2109 SBSV B737-800X... 2024-06-20 00:09:45
PUA1496 SABE LSH MD-82... 2024-06-20 09:42:21
PUA1496 SABE LSH MD-82... 2024-06-19 12:14:54
PUA2011 SCEL Boeing 787... 2024-06-18 00:59:24
PUA1502 SULS Cessna 152... 2024-06-18 17:20:12
PUA114 SAME LSH MD-82... 2024-06-18 00:38:31
AR44 SAEZ LSH MD-82... 2024-06-17 20:05:24
PUA202 SBPA A320 CFM P... 2024-06-15 18:15:31
PUA2018 SUAA Sikorsky S... 2024-06-15 13:57:40
PUA2018 KMIA A330 2 PUA 2024-06-15 11:58:23
PUA2011 SCVD PMDG 737-7... 2024-06-15 00:38:35
PUA1502 SULS Bonanza G3... 2024-06-15 01:18:24
PUA116 SAZM A320 IAE P... 2024-06-15 16:21:14
AR22 SATR LSH MD-82... 2024-06-15 16:48:01
PUA1502 SABE A320 CFM P... 2024-06-14 22:22:27
PUA-T02 SULS A320 IAE P... 2024-06-14 04:29:33
AR11 SAAP LSH MD-82... 2024-06-14 07:35:02
{}PUA2018 SPJC B737-800X... 2024-06-12 17:24:36
{}PUA2018 MUHA A330 2 PUA 2024-06-11 11:50:31
PUA1499 SUAA Pilatus PC... 2024-06-11 01:46:50
PUA253 SBPA _FJS_727_S... 2024-06-10 22:51:28
PUA2302 SABE PMDG 737-7... 2024-06-10 13:02:01
AR33 SADP LSH MD-82... 2024-06-10 07:20:39
AR22 SATR Boeing 737... 2024-06-10 00:00:40
PUA269 SCEL Salty Boei... 2024-06-08 22:42:25
PUA253 SCEL PLUNA-DP 2024-06-08 23:04:19
{}PUA2018 KMCO A330 2 Cat... 2024-06-07 11:24:26
PUA1502 SULS Bonanza G3... 2024-06-07 02:30:59
PUA1419 SABE LSH MD-82... 2024-06-07 13:34:27
{}PUA2018 SABE ToLissA319... 2024-06-05 23:46:39
UR10 SULS Beech King... 2024-06-05 17:45:06
UR03 SURV LSH MD-82... 2024-06-05 22:16:52
PUA402 SGAS Airbus A32... 2024-06-05 00:20:30
PUA202 SBPA A320 CFM P... 2024-06-05 17:13:24
PUA1167 SABE PMDG 737-8... 2024-06-05 19:19:16
PUA1496 SABE LSH MD-82... 2024-06-04 10:12:22
PUA102 SABE Airbus A32... 2024-06-03 14:02:44
PUA212 SBFL Airbus A32... 2024-06-02 22:37:37
PUA2109 SGAS B737-800X... 2024-06-01 00:20:35
PUA2018 SUAA Sikorsky S... 2024-05-27 14:01:12
PUA116 SAZM Airbus A32... 2024-05-27 21:56:18
{}PUA2018 SAEZ B737-800X... 2024-05-25 20:51:26
PUA212 SBFL A320neo Ai... 2024-05-25 01:39:26
PUA107 SULS Beechcraft... 2024-05-25 01:34:13
PUA104 SAEZ Airbus A32... 2024-05-25 17:11:31
PUA2018 SABE ToLissA319... 2024-05-24 00:08:28
{}N319SB SABE ToLissA319... 2024-05-22 23:54:02
PUA120 SAWH A320 IAE P... 2024-05-21 22:46:55
PUA104 SAEZ A320 IAE P... 2024-05-21 13:53:10
PUA2401 SUMO AT46 Pluna... 2024-05-20 17:06:53
PUA2109 SGAS B737-800X... 2024-05-20 03:06:58
PUA2011 SCEL B788 Pluna... 2024-05-19 23:00:46
PUA2109 SAEZ B737-800X... 2024-05-18 00:57:53
PUA2018 SBRJ ToLissA319... 2024-05-18 16:02:15
{}PUA2018 SABE B737-800X... 2024-05-17 21:30:44
PUA2401 SABE A320 IAE P... 2024-05-17 18:38:51
AR33 SADP Bonanza G3... 2024-05-17 14:55:19
PUA2401 SUMO AT46 Pluna... 2024-05-15 18:01:05
PUA2018 SUAA Sikorsky S... 2024-05-15 23:03:36
PUA2302 SABE FenixA320_... 2024-05-14 01:10:29
PUA2401 SBCX B788 Pluna... 2024-05-13 19:00:13
PUA1167 SCEL PMDG 737-8... 2024-05-12 23:34:49
PUA2401 SAEZ Boeing 787... 2024-05-11 02:55:20
AR22 SATR Bonanza G3... 2024-05-10 23:55:49
UR06 SUAG Bombardier... 2024-05-09 01:19:36
PUA2046 SPJC FenixA320_... 2024-05-09 00:42:45
PUA2018 SABE ToLissA319... 2024-05-09 18:15:48
PUA2011 SPJC PMDG 737-8... 2024-05-09 00:30:10
PUA269 SCEL Boeing 787... 2024-05-08 20:31:47
PUA257 SABE PMDG 737-8... 2024-05-08 23:40:49
PUA2109 SGAS B737-800X... 2024-05-08 23:56:48
PUA2018 SCEL B737-800X... 2024-05-08 19:18:00
PUA269 SCEL Salty Boei... 2024-05-07 19:01:31
PUA2302 SULS FenixA320_... 2024-05-07 15:34:00
PUA1497 SADF Carenado P... 2024-05-05 10:52:44
AR11 SAAP Bonanza G3... 2024-05-05 20:06:31
PUA2302 SULS PMDG 737-7... 2024-05-02 15:52:02
PUA2109 SGAS B737-800X... 2024-05-02 22:59:25
UR10 SULS Cessna Sky... 2024-05-01 23:44:28
PUA2402 SGAS PMDG 737-8... 2024-05-01 21:42:26
PUA2018 SABE ToLissA319... 2024-05-01 23:24:36
PUA1502 SULS Cessna Sky... 2024-05-01 22:12:35
UR06 SUAG Cessna Sky... 2024-04-30 00:01:01
PUA7320 SABE Airbus A32... 2024-04-29 00:09:24
PUA918 SUDU Cessna Sky... 2024-04-28 02:26:42
PUA2018 SABE ToLissA319... 2024-04-28 00:53:47
PUA2401 SURV AT46 Pluna... 2024-04-25 18:26:33
PUA2046 SBFL PMDG 737-8... 2024-04-24 21:26:42
PUA2302 SCEL FenixA320_... 2024-04-23 15:10:09
PUA1497 SABE TBM 930 As... 2024-04-22 13:20:18
PUA2018 SABE ToLissA319... 2024-04-17 20:55:06
PUA2046 SGAS ALITALIA A... 2024-04-15 21:49:46
UR10 SULS Cessna 172... 2024-04-14 16:17:17
PUA2018 SABE ToLissA319... 2024-04-14 23:19:53
PUA104 SAEZ FlightFact... 2024-04-14 18:21:26
UR06 SUAG Cessna 172... 2024-04-11 18:22:17
PUA2302 SABE PMDG 737-6... 2024-04-09 22:50:55
AR33 SADP PMDG 737-7... 2024-04-09 01:56:31
UR03 SURV Cessna 172... 2024-04-05 21:40:52
UR03 SURV Beech King... 2024-04-04 20:09:09
PUA-T02 SULS Cessna 172... 2024-04-03 20:26:21
CL24-G08 SVMI DCDesigns_... 2024-04-01 17:41:55
CL24-G05 SBCF ATR 42-600... 2024-03-29 14:56:30
CL24-G02 SAAR Mitsubishi... 2024-03-27 14:45:24
PUA2046 SBGL Airbus A32... 2024-03-20 18:22:34
PUA2011 SBFL FenixA320_... 2024-03-20 18:18:52
PUA1497 SBPA Tecnam P20... 2024-03-19 17:51:59
PUA-GC13 SARL Cessna T20... 2024-03-19 12:40:59
PUAGC08 SBSP PC-12 N465... 2024-03-12 18:35:24
PUA2318 SAEZ PMDG 737-8... 2024-03-10 20:10:34
PUA2046 SAEZ FenixA320... 2024-03-10 20:09:16
PUA1167 SBFL PMDG 737-8... 2024-03-08 02:46:14
PUA1497 SBJA Black Squa... 2024-03-06 15:46:29
PUA2109 SGAS B737-800X... 2024-03-03 03:24:44
PUA-T02 SULS FFX Vision... 2024-02-26 10:58:45
EV1-02 SBFL FenixA320_... 2024-02-25 23:40:55
3W48 SAVC Black Squa... 2024-02-17 19:11:52
PUA 2104 SABE Tu-134B-3_... 2024-02-16 02:53:08
PUA1495 SABE Airbus A32... 2024-02-12 16:26:53
PUA2104 SADM Tu-134B-3_... 2024-02-05 20:28:40
PUA2046 SBGL Airbus A32... 2024-02-05 04:46:45
PUA2317 SABE PMDG 737-9... 2024-01-30 00:52:54
{}PR-YRH SBCT Airbus A32... 2024-01-25 16:10:01
PUA1167 SULS Cessna 172... 2024-01-25 22:22:00
PUA2302 SABE PMDG 737-7... 2024-01-23 02:15:25
PUA2302 SBRJ FenixA320_... 2024-01-20 15:47:23
PUA2317 SABE PMDG 737-9... 2024-01-17 17:12:35
PUA2011 SCEL A300 Passe... 2024-01-12 00:34:33
PUA-G0103 SGAS Mitsubishi... 2024-01-07 18:30:06
AR33 SADP Beech King... 2024-01-02 18:00:05
PUA1495 SCEL Airbus A32... 2023-12-29 17:31:39
PUA2004 SULS Cessna 152... 2023-12-24 23:51:57
PUA1495 SAAR Airbus A32... 2023-12-22 14:42:40
PUA-1497 SBPA Cessna T20... 2023-12-21 11:37:25
PUAG1208 SGAS Cessna 208... 2023-12-19 18:29:15
PUA1495 SBGR Airbus A32... 2023-12-18 20:47:45
PUA269 SAZO PMDG 737-7... 2023-12-16 14:32:46
PUA2302 SAZS FenixA320_... 2023-12-16 14:36:05
AR22 SATR Beech King... 2023-12-15 20:32:10
PUA-1497 SAVC Mitsubishi... 2023-12-13 19:36:19
PUA2320 SULS TBM 930 01... 2023-12-10 03:05:20
PUA1497 SACO M500 by FS... 2023-12-06 12:49:23
MAD9 SBCB Airbus A32... 2023-12-04 15:53:59
PUA2302 SABE FenixA320_... 2023-12-03 04:20:31
AR47 SAEZ Beech Baro... 2023-12-03 04:05:00
PUA1497 SBFL Mitsubishi... 2023-11-29 17:54:33
PUA2302 SBPA FenixA320_... 2023-11-28 14:53:10
PUA1167 SBPA PMDG 737-8... 2023-11-26 16:34:22
PUA1167 SABE B737-800X... 2023-11-26 00:38:49
GLO7634 SBGR PMDG 737-8... 2023-11-26 22:51:52
PUA2302 SBJH FenixA320_... 2023-11-19 12:23:59
PUA2109 SBEG B737-800X... 2023-11-15 22:58:57
PUA269 SCEL PMDG 737-8... 2023-11-10 17:28:07
PUA2046 SBBR PMDG 737-8... 2023-11-08 03:11:05
AR11 SAAP Beech Baro... 2023-11-06 02:36:14
ARG666 SAZB PMDG 737-7... 2023-11-05 22:51:20
PUA2317 SCEL PMDG 737-9... 2023-11-04 01:16:50
PUA257 SAEZ PMDG 737-9... 2023-11-03 01:02:14
MAD9 SBCB PMDG 737-8... 2023-11-01 18:18:57
PUA253 SBPA PMDG 737-8... 2023-10-31 22:03:51
PUA142 SBPA PMDG 737-7... 2023-10-31 22:03:16
PUA1005 SCBA Cockspur C... 2023-10-31 22:21:32
PUA1029 SULS A2A Piper... 2023-10-29 20:19:54
UR10 SULS Beech Baro... 2023-10-25 17:46:08
PUA2302 SCEL FenixA320 2023-10-25 00:34:46
AR44 SAEZ Britten No... 2023-10-24 16:43:07
PUA687 SABE PMDG 737-7... 2023-10-22 23:56:58
SG07 SGAS PMDG 737-7... 2023-10-21 02:27:16
UR06 SUAG Beech Baro... 2023-10-20 19:52:16
PUA2302 SAZM FenixA320_... 2023-10-20 02:14:19
PUA2302 SULS FenixA320_... 2023-10-18 13:15:33
UR03 SURV Beech Baro... 2023-10-16 02:23:46
PUA1167 SAZM Tecnam P20... 2023-10-15 02:10:54
PUA2302 SCIE PMDG 737-8... 2023-10-13 16:11:22
PUA253 SARI PMDG 737-8... 2023-10-11 14:15:27
PUA2302 SARI PMDG 737-6... 2023-10-11 14:19:43
PUA142 SARI PMDG 737-7... 2023-10-11 14:16:38
PUA206 SBGR FenixA320 2023-10-10 01:32:47
PUA2046 SBGR FenixA320_... 2023-10-04 01:06:21
PUA2317 SCEL PMDG 737-9... 2023-10-02 23:34:00
PUA1499 SUDU PMDG 737-7... 2023-10-01 01:52:05
AR33 SADP Beechcraft... 2023-10-01 13:21:26
PUA2302 SASA PMDG 737-9... 2023-09-27 04:10:54
PUA1200 SABE FenixA320_... 2023-09-27 00:30:14
PUA2317 SCEL PMDG 737-9... 2023-09-23 21:24:35
PUA1800 SABE PMDG 737-7... 2023-09-23 03:22:04
AR22 SATR Pilatus PC... 2023-09-20 17:04:31
PUA1200 SACO PMDG 737-7... 2023-09-18 00:38:01
{}PUA2018 SCEL B737-800X_... 2023-09-16 22:37:36
PUA2109 SPJC B737-800X... 2023-09-16 01:15:44
PUA2046 LFPG Airbus A33... 2023-09-11 14:42:43
AR11 SAAP Black Squa... 2023-09-05 11:57:44
PUA269 SAEZ Boeing 787... 2023-09-04 19:04:31
PUA2317 SABE Airbus A32... 2023-09-03 03:52:07
PUA1498 SAAR FenixA320_... 2023-09-03 14:15:29
PUA142 SGAS PMDG 737-7... 2023-09-03 14:00:00
PUA2317 SULS Beech Baro... 2023-09-02 23:15:22
UR06 SUAG Beech Baro... 2023-08-28 01:18:50
BR33 SBPA PC-12 N465... 2023-08-27 15:09:32
UR10 SULS Beech Baro... 2023-08-26 20:02:18
PUA2303 SULS Asobo Aero... 2023-08-26 13:43:39
PUA-T02 SULS Cessna Sky... 2023-08-23 03:17:18
AR44 SAEZ Boeing 787... 2023-08-20 01:16:26
UR10 SULS Baron B58 2023-08-17 00:30:41
UR10 SULS Beechcraft... 2023-08-13 22:18:05
AR33 SADP PMDG 737-7... 2023-08-13 00:00:47
UR06 SUAG Carenado S... 2023-08-11 04:28:01
UR03 SURV Beech Baro... 2023-08-11 23:49:46
UR03 SURV Cessna Cit... 2023-08-05 04:02:40
3W48 SAVC Citation I... 2023-08-03 01:16:11
AR22 SATR PMDG 737-8... 2023-07-31 16:23:26
AR44 SAEZ Cessna Cit... 2023-07-29 03:54:42
AR44 SAEZ B737-800X_... 2023-07-29 02:52:49
UR06 SUAG CRJ550 Uni... 2023-07-28 15:03:50
PUA269 SAEZ Boeing 787... 2023-07-28 19:41:39
PUA2109 SURV Carenado P... 2023-07-25 14:34:13
LAN406 SCEL FenixA320_... 2023-07-24 21:30:56
AR11 SAAP PMDG 737-7... 2023-07-24 15:37:16

Runway Information (Airport elevation: 68ft)

Runway 01 Length 7,364ft Width 143ft Elevation 68ft Surface Asphalt Heading 359
Runway 06 Length 10,501ft Width 146ft Elevation 68ft Surface Asphalt Heading 53
Runway 19 Length 7,364ft Width 143ft Elevation 68ft Surface Asphalt Heading 179
Runway 24 Length 10,501ft Width 146ft Elevation 68ft Surface Asphalt Heading 233

Airport Frequencies

Type APP/DEP Frequency 119.200 Mhz
Type APP/DEP Frequency 120.200 Mhz
Type Tower Frequency 118.100 Mhz
Type Tower Frequency 121.800 Mhz

Airport Navaids

Type NDB Ident AR Frequency 260 Khz
Type NDB Ident CA Frequency 280 Khz
Type NDB Ident CAR Frequency 380 Khz
Type VOR-DME Ident CRR Frequency 116900 Khz